Location: Exeidioux
(45.6312°N, 1.6819°E)
Time: 16:33:49
(UTC+00:00)

SL-4 R/B - Pass Details

Date: 03 March 2021
Orbit: 428 x 663 km, 51.6° (Epoch: 15 April)

Event Time Altitude Azimuth Distance (km) Brightness Sun altitude
Rises 19:50:08 0° 298° (WNW) 2,460 6.7 -22.9°
Reaches altitude 10° 19:52:20 10° 302° (WNW) 1,562 5.3 -23.2°
Enters shadow 19:54:49 40° 325° (NW) 652 2.7 -23.6°
